Location: Betzi
(47.2343°N, 9.5260°E)
Time: 23:09:50
(UTC+00:00)

Cosmos 2058 Rocket - Pass Details

Date: 27 May 2022
Orbit: 609 x 640 km, 82.5° (Epoch: 29 June)

Event Time Altitude Azimuth Distance (km) Brightness Sun altitude
Rises 02:22:54 0° 353° (N) 2,904 7.1 -10.0°
Reaches altitude 10° 02:25:10 10° 357° (N) 1,989 6.3 -9.7°
Maximum altitude 02:29:32 63° 78° (ENE) 688 3.6 -9.2°
Drops below altitude 10° 02:33:50 10° 160° (SSE) 1,961 5.4 -8.7°
Sets 02:36:03 0° 164° (SSE) 2,859 6.2 -8.4°
